Printer-friendly version
Follow the MPC on Twitter Follow the MPC on Facebook The MPC blog
Minor Planet Center

MPEC 2010-M10 : 2010 MA

The following Minor Planet Electronic Circular may be linked-to from your own Web pages, but must not otherwise be redistributed electronically.

A form allowing access to any MPEC is at the bottom of this page.


Read MPEC 2010-M09 Read MPEC 2010-M11


M.P.E.C. 2010-M10                                Issued 2010 June 16, 22:55 UT

     The Minor Planet Electronic Circulars contain information on unusual
         minor planets and routine data on comets.  They are published
   on behalf of Commission 20 of the International Astronomical Union by the
          Minor Planet Center, Smithsonian Astrophysical Observatory,
                          Cambridge, MA 02138, U.S.A.

             Prepared using the Tamkin Foundation Computer Network

                              MPC@CFA.HARVARD.EDU
       URL http://www.minorplanetcenter.org/iau/mpc.html  ISSN 1523-6714

                                    2010 MA

Observations:
     K10M00A  C2010 06 16.29105 16 33 14.79 +10 34 40.6          19.7 V EM010703
     K10M00A  C2010 06 16.29564 16 33 07.99 +10 31 26.5          19.1 V EM010703
     K10M00A  C2010 06 16.30023 16 33 01.58 +10 28 19.3          19.6 V EM010703
     K10M00A  C2010 06 16.30481 16 32 54.78 +10 25 05.3          18.0 V EM010703
     K10M00A* C2010 06 16.35140 16 31 48.21 +09 52 50.7          20.3 V EM010G96
     K10M00A  C2010 06 16.35199 16 31 47.38 +09 52 26.2          18.5 V EM010G96
     K10M00A  C2010 06 16.37649 16 31 12.39 +09 35 26.2          18.6 R EM010H01
     K10M00A  C2010 06 16.38123 16 31 05.87 +09 32 11.3          18.7 R EM010H01
     K10M00A  C2010 06 16.38740 16 30 57.37 +09 27 57.1          18.3 R EM010H01
     K10M00A  C2010 06 16.39081 16 30 53.20 +09 25 46.4          19.0 V EM010G96
     K10M00A  C2010 06 16.39117 16 30 52.74 +09 25 31.7          19.3 V EM010G96
     K10M00A  C2010 06 16.39152 16 30 52.23 +09 25 17.2          19.0 V EM010G96
     K10M00A  C2010 06 16.39186 16 30 51.76 +09 25 03.2          19.0 V EM010G96
     K10M00A  C2010 06 16.39221 16 30 51.26 +09 24 48.7          18.8 V EM010G96
     K10M00A  C2010 06 16.39801 16 30 42.85 +09 20 41.4          18.8 R EM010H01
     K10M00A KC2010 06 16.92161816 20 27.23 +03 40 55.5                 EM010J95
     K10M00A KC2010 06 16.92617816 20 21.69 +03 38 07.5                 EM010J95
     K10M00A KC2010 06 16.92988416 20 17.17 +03 35 51.1                 EM010J95
     K10M00A KC2010 06 16.93292216 20 13.50 +03 34 01.2          19.5 R EM010J95

Observer details:
703 Catalina Sky Survey.  Observer R. E. Hill.  Measurers J. D. Ahern,
    E. C. Beshore, A. Boattini, G. J. Garradd, A. R. Gibbs, A. D. Grauer,
    R. E. Hill, R. A. Kowalski, S. M. Larson, R. H. McNaught.  0.68-m Schmidt
    + CCD.
G96 Mt. Lemmon Survey.  Observer A. Boattini.  Measurers J. D. Ahern,
    E. C. Beshore, A. Boattini, G. J. Garradd, A. R. Gibbs, A. D. Grauer,
    R. E. Hill, R. A. Kowalski, S. M. Larson, R. H. McNaught.  1.5-m reflector
    + CCD.
H01 Magdalena Ridge Observatory, Socorro.  Observer W. H. Ryan.  2.4-m f/8.9
    reflector + CCD.
J95 Great Shefford.  Observer P. Birtwhistle.  0.40-m f/6.0 Schmidt-Cassegrain
    + CCD.

Orbital elements:
2010 MA                                                  Earth MOID = 0.0237 AU
Epoch 2010 July 23.0 TT = JDT 2455400.5                 MPC
M 162.44797              (2000.0)            P               Q
n   1.27219650     Peri.   32.10928     -0.47782011     -0.84382201
a   0.8435288      Node    87.49017     +0.74541279     -0.53657836
e   0.3493896      Incl.   14.15068     +0.46480934     -0.00693350
P   0.77           H   25.5           G   0.15           U   8
Residuals in seconds of arc
100616 703 (1.8+  2.8+)   100616 H01  0.4+  0.8+    100616 H01  0.3+  0.8+
100616 703  0.4-  0.0     100616 H01  0.3+  0.5+    100616 J95  0.1+  0.5+
100616 703 (3.1+  4.0+)   100616 G96  0.3-  0.2-    100616 J95  0.1+  0.2-
100616 703  0.5+  0.7+    100616 G96  0.2+  0.2-    100616 J95  0.2-  0.8-
100616 G96  0.0   0.8-    100616 G96  0.2-  0.3-    100616 J95  0.0   0.6+
100616 G96  0.1+  0.9-    100616 G96  0.3-  0.3-
100616 H01  0.0   0.4+    100616 G96  0.5-  0.4-

Ephemeris:
2010 MA                  a,e,i = 0.84, 0.35, 14                  q = 0.5488
Date    TT    R. A. (2000) Decl.     Delta      r     Elong.  Phase     V
2010 06 13    18 28.92   +50 15.2    0.0261   1.023   105.2    73.4    20.2
2010 06 14    17 43.12   +39 29.4    0.0242   1.027   117.2    61.6    19.7
2010 06 15    17 07.39   +26 46.6    0.0239   1.031   129.6    49.4    19.3
2010 06 16    16 40.01   +14 03.8    0.0251   1.035   140.1    39.0    19.1
2010 06 17    16 18.97   +02 57.8    0.0277   1.039   147.0    32.2    19.2
2010 06 18    16 02.58   -05 57.0    0.0313   1.043   149.8    29.3    19.3
2010 06 19    15 49.62   -12 50.8    0.0356   1.047   149.8    29.2    19.6
2010 06 20    15 39.21   -18 09.2    0.0405   1.051   148.3    30.5    20.0
2010 06 21    15 30.74   -22 16.2    0.0457   1.054   146.3    32.3    20.3
2010 06 22    15 23.76   -25 30.8    0.0511   1.058   144.2    34.2    20.6
2010 06 23    15 17.95   -28 06.7    0.0567   1.062   142.1    36.0    20.9
2010 06 24    15 13.08   -30 13.6    0.0624   1.065   140.2    37.6    21.1
2010 06 25    15 08.97   -31 58.5    0.0683   1.068   138.5    39.1    21.4
2010 06 26    15 05.48   -33 26.4    0.0742   1.072   136.8    40.4    21.6
2010 06 27    15 02.51   -34 40.9    0.0802   1.075   135.3    41.7    21.8
2010 06 28    14 59.99   -35 44.9    0.0862   1.078   133.9    42.8    22.0
2010 06 29    14 57.83   -36 40.2    0.0923   1.081   132.6    43.8    22.2
2010 06 30    14 56.00   -37 28.6    0.0984   1.084   131.4    44.7    22.4
2010 07 01    14 54.46   -38 11.2    0.105    1.087   130.2    45.6    22.5
2010 07 02    14 53.16   -38 48.9    0.111    1.090   129.1    46.3    22.7
2010 07 03    14 52.08   -39 22.6    0.117    1.093   128.1    47.1    22.8

Timothy B. Spahr             (C) Copyright 2010 MPC           M.P.E.C. 2010-M10

Read MPEC 2010-M09 Read MPEC 2010-M11


MPEC number:

Enter an MPEC number in one of the following forms:

  • 1997-B01 (the full form)
  • J97B01 (the packed version of the full form)
  • B01 (the abbreviated form)

Valid HTML 4.01!